This is the latest recevied weather packets stored in our database for station/object N4TLC. If no packets are shown the sender has not sent any weather packets the latest 10 day(s).
| Time | Temp. | Humidity | Pressure | Rain* | Wind** | Luminosity | Snow |
|---|---|---|---|---|---|---|---|
| 1777839296 | 18.89° C | 23% | 1019 hPa | 0 mm | - | 766 W/m² | - |
| 1777838993 | 18.89° C | 22% | 1019.2 hPa | 0 mm | - | 782 W/m² | - |
| 1777838689 | 18.89° C | 24% | 1019.1 hPa | 0 mm | - | 803 W/m² | - |
| 1777838386 | 18.89° C | 23% | 1019.1 hPa | 0 mm | - | 819 W/m² | - |
| 1777838083 | 18.33° C | 24% | 1019.2 hPa | 0 mm | - | 834 W/m² | - |
| 1777837780 | 17.78° C | 25% | 1019.4 hPa | 0 mm | - | 848 W/m² | - |
| 1777837477 | 18.89° C | 24% | 1019.4 hPa | 0 mm | - | 861 W/m² | - |
| 1777837172 | 18.33° C | 25% | 1019.2 hPa | 0 mm | - | 874 W/m² | - |
| 1777836868 | 17.78° C | 25% | 1019.4 hPa | 0 mm | - | 889 W/m² | - |
| 1777836563 | 17.78° C | 25% | 1019.5 hPa | 0 mm | - | 901 W/m² | - |
| 1777836260 | 17.78° C | 24% | 1019.5 hPa | 0 mm | - | 914 W/m² | - |
| 1777835956 | 17.78° C | 24% | 1019.5 hPa | 0 mm | - | 924 W/m² | - |
| 1777835654 | 17.22° C | 25% | 1019.7 hPa | 0 mm | - | 936 W/m² | - |
| 1777835350 | 17.22° C | 25% | 1019.8 hPa | 0 mm | - | 948 W/m² | - |
| 1777835048 | 16.67° C | 26% | 1019.7 hPa | 0 mm | - | 960 W/m² | - |
| 1777834744 | 16.67° C | 26% | 1020 hPa | 0 mm | - | 971 W/m² | - |
| 1777834440 | 16.67° C | 27% | 1020 hPa | 0 mm | - | 980 W/m² | - |
| 1777834140 | 16.67° C | 26% | 1020.1 hPa | 0 mm | - | 988 W/m² | - |
| 1777833836 | 16.67° C | 25% | 1020 hPa | 0 mm | - | 1001 W/m² | - |
| 1777833532 | 16.11° C | 28% | 1020.2 hPa | 0 mm | - | 1006 W/m² | - |
| 1777833229 | 16.11° C | 27% | 1020.2 hPa | 0 mm | - | 1012 W/m² | - |
| 1777832927 | 16.67° C | 26% | 1020.1 hPa | 0 mm | - | 1019 W/m² | - |
| 1777832626 | 16.67° C | 28% | 1020.1 hPa | 0 mm | - | 1026 W/m² | - |
| 1777832322 | 16.67° C | 25% | 1020.4 hPa | 0 mm | - | 1030 W/m² | - |
| 1777832019 | 16.67° C | 29% | 1020.5 hPa | 0 mm | - | 1034 W/m² | - |
* Rain latest hour (hover to see other rain measurements)
** Current wind speed in m/s (hover to see current wind gust speed)